Phillips, WI

12:08 PM CST on February 22, 2017 (GMT -0600)
Price County

Weather History for KPBH - July, 2013

Change the Weather History Date:

Saturday, July 27, 2013

  Actual Average Record
Temperature  
Mean Temperature 52 °F -  
Max Temperature 57 °F 76 °F 86 °F (2006)
Min Temperature 46 °F 55 °F 44 °F (2005)
Degree Days  
Heating Degree Days 14    
Growing Degree Days 2 (Base 50)    
Moisture  
Dew Point 48 °F    
Average Humidity 89    
Maximum Humidity 100    
Minimum Humidity 72    
Precipitation  
Precipitation 0.00 in - - ()
Sea Level Pressure  
Sea Level Pressure 29.92 in    
Wind  
Wind Speed 4 mph (NW)    
Max Wind Speed 10 mph    
Max Gust Speed 18 mph    
Visibility 9 miles    
Events Rain    
Averages and records for this station are not official NWS values.
T = Trace of Precipitation, MM = Missing Value Source: NWS Daily Summary

Daily Weather History Graph

Daily Weather History Graph

Search for Another Location

Airport or City:

Trip Planner

Search our weather history database for the weather conditions in past years. The results will help you decide how hot, cold, wet, or windy it might be!

Date:

Astronomy

Jul. 27, 2013 Rise Set
Actual Time 5:39 AM CDT 8:36 PM CDT
Civil Twilight 5:04 AM CDT 9:10 PM CDT
Nautical Twilight 4:19 AM CDT 9:55 PM CDT
Astronomical Twilight 3:26 AM CDT 10:48 PM CDT
Moon 11:00 PM CDT (7/27) 11:41 AM CDT (7/27)
Length of Visible Light 16h 06m
Length of Day
14h 56m
Waning Gibbous, 70% of the Moon is Illuminated
Jul 27
Waning Gibbous
Jul 29
Last Quarter
Aug 6
New
Aug 14
First Quarter
Aug 20
Full

Hourly Weather History & Observations

Time (CDT) Temp. Windchill Dew Point Humidity Pressure Visibility Wind Dir Wind Speed Gust Speed Precip Events Conditions
12:15 AM 48.2 °F - 46.4 °F 93% 30.01 in 5.0 mi NW 3.5 mph - N/A   Overcast
12:35 AM 48.2 °F - 46.4 °F 93% 30.01 in 1.8 mi Calm Calm - N/A   Light Drizzle
12:55 AM 48.2 °F - 46.4 °F 93% 30.01 in 2.5 mi NW 9.2 mph - N/A Rain Light Rain
1:15 AM 48.2 °F - 46.4 °F 93% 30.00 in 10.0 mi NNW 6.9 mph - N/A   Overcast
1:35 AM 48.2 °F - 46.4 °F 93% 30.00 in 10.0 mi NW 5.8 mph - N/A   Overcast
1:55 AM 48.2 °F - 46.4 °F 93% 29.99 in 10.0 mi NW 4.6 mph - N/A   Overcast
2:15 AM 48.2 °F - 46.4 °F 93% 29.99 in 3.0 mi NW 4.6 mph - N/A   Drizzle
2:35 AM 48.2 °F - 46.4 °F 93% 29.99 in 10.0 mi NW 4.6 mph - N/A   Overcast
2:55 AM 48.2 °F - 46.4 °F 93% 29.99 in 10.0 mi NW 4.6 mph - N/A   Overcast
3:15 AM 48.2 °F - 46.4 °F 93% 29.99 in 10.0 mi Calm Calm - N/A   Overcast
3:35 AM 46.4 °F 45.2 °F 44.6 °F 93% 29.98 in 10.0 mi WNW 3.5 mph - N/A   Overcast
3:55 AM 46.4 °F 44.3 °F 44.6 °F 93% 29.98 in 10.0 mi WNW 4.6 mph - N/A   Mostly Cloudy
4:15 AM 46.4 °F 43.5 °F 44.6 °F 93% 29.98 in 10.0 mi WNW 5.8 mph - N/A   Mostly Cloudy
4:35 AM 46.4 °F 45.2 °F 44.6 °F 93% 29.97 in 10.0 mi WNW 3.5 mph - N/A   Scattered Clouds
4:55 AM 46.4 °F 45.2 °F 44.6 °F 93% 29.97 in 10.0 mi WNW 3.5 mph - N/A   Overcast
5:15 AM 46.4 °F 45.2 °F 44.6 °F 93% 29.97 in 10.0 mi West 3.5 mph - N/A   Mostly Cloudy
5:35 AM 46.4 °F 45.2 °F 44.6 °F 93% 29.97 in 10.0 mi WNW 3.5 mph - N/A   Mostly Cloudy
5:55 AM 46.4 °F 44.3 °F 44.6 °F 93% 29.97 in 10.0 mi West 4.6 mph - N/A   Overcast
6:15 AM 46.4 °F 45.2 °F 44.6 °F 93% 29.96 in 10.0 mi WNW 3.5 mph - N/A   Overcast
6:35 AM 46.4 °F - 46.4 °F 100% 29.95 in 10.0 mi Calm Calm - N/A   Overcast
6:55 AM 48.2 °F - 46.4 °F 93% 29.95 in 10.0 mi WNW 4.6 mph - N/A   Overcast
7:15 AM 48.2 °F - 46.4 °F 93% 29.95 in 10.0 mi West 3.5 mph - N/A   Overcast
7:35 AM 48.2 °F - 46.4 °F 93% 29.95 in 10.0 mi West 6.9 mph - N/A   Overcast
7:55 AM 50.0 °F - 46.4 °F 87% 29.94 in 10.0 mi West 8.1 mph - N/A   Overcast
8:15 AM 51.8 °F - 48.2 °F 88% 29.94 in 10.0 mi WNW 4.6 mph - N/A   Overcast
8:35 AM 51.8 °F - 48.2 °F 88% 29.94 in 7.0 mi West 4.6 mph - N/A   Overcast
8:55 AM 50.0 °F - 48.2 °F 94% 29.93 in 1.2 mi WNW 4.6 mph - N/A   Overcast
9:15 AM 51.8 °F - 48.2 °F 88% 29.93 in 3.0 mi NW 6.9 mph - N/A   Overcast
9:35 AM 51.8 °F - 48.2 °F 88% 29.92 in 10.0 mi NW 5.8 mph - N/A   Overcast
9:55 AM 51.8 °F - 48.2 °F 88% 29.92 in 10.0 mi WNW 3.5 mph - N/A   Overcast
10:15 AM 51.8 °F - 48.2 °F 88% 29.92 in 7.0 mi WNW 4.6 mph - N/A   Overcast
10:35 AM 53.6 °F - 48.2 °F 82% 29.92 in 5.0 mi West 8.1 mph - N/A   Overcast
10:55 AM 51.8 °F - 48.2 °F 88% 29.92 in 7.0 mi WNW 4.6 mph - N/A   Overcast
11:15 AM 51.8 °F - 48.2 °F 88% 29.91 in 3.0 mi NW 5.8 mph - N/A   Overcast
11:35 AM 53.6 °F - 48.2 °F 82% 29.90 in 10.0 mi NW 10.4 mph - N/A   Overcast
11:55 AM 53.6 °F - 48.2 °F 82% 29.90 in 10.0 mi NW 10.4 mph - N/A   Overcast
12:15 PM 55.4 °F - 48.2 °F 77% 29.90 in 10.0 mi NW 5.8 mph - N/A   Overcast
12:35 PM 53.6 °F - 46.4 °F 77% 29.90 in 7.0 mi WNW 9.2 mph 18.4 mph N/A Rain Light Rain
12:55 PM 53.6 °F - 46.4 °F 77% 29.90 in 10.0 mi NNW 6.9 mph - N/A   Overcast
1:15 PM 55.4 °F - 46.4 °F 72% 29.89 in 10.0 mi NNW 6.9 mph - N/A   Overcast
1:35 PM 51.8 °F - 48.2 °F 88% 29.89 in 5.0 mi NW 3.5 mph - N/A   Light Drizzle
1:55 PM 55.4 °F - 48.2 °F 77% 29.89 in 10.0 mi WNW 4.6 mph - N/A   Mostly Cloudy
2:15 PM 57.2 °F - 48.2 °F 72% 29.88 in 10.0 mi Calm Calm - N/A   Mostly Cloudy
2:35 PM 57.2 °F - 48.2 °F 72% 29.88 in 10.0 mi NW 4.6 mph - N/A Rain Light Rain
2:55 PM 57.2 °F - 50.0 °F 77% 29.88 in 10.0 mi West 4.6 mph - N/A   Overcast
3:15 PM 53.6 °F - 50.0 °F 88% 29.88 in 5.0 mi NNW 3.5 mph - N/A Rain Light Rain
3:35 PM 55.4 °F - 51.8 °F 88% 29.88 in 10.0 mi WNW 3.5 mph - N/A   Mostly Cloudy
3:55 PM 57.2 °F - 51.8 °F 82% 29.87 in 10.0 mi WNW 4.6 mph - N/A   Mostly Cloudy
4:15 PM 53.6 °F - 50.0 °F 88% 29.88 in 10.0 mi WNW 4.6 mph - N/A   Overcast
4:35 PM 55.4 °F - 51.8 °F 88% 29.87 in 7.0 mi West 3.5 mph - N/A   Overcast
4:55 PM 53.6 °F - 51.8 °F 94% 29.88 in 7.0 mi NNW 8.1 mph - N/A Rain Rain
5:15 PM 53.6 °F - 50.0 °F 88% 29.88 in 10.0 mi North 3.5 mph - N/A Rain Light Rain
5:35 PM 55.4 °F - 51.8 °F 88% 29.88 in 10.0 mi NW 3.5 mph - N/A   Mostly Cloudy
5:55 PM 55.4 °F - 51.8 °F 88% 29.87 in 10.0 mi Calm Calm - N/A   Mostly Cloudy
6:15 PM 53.6 °F - 51.8 °F 94% 29.87 in 10.0 mi Calm Calm - N/A   Overcast
6:35 PM 53.6 °F - 51.8 °F 94% 29.87 in 10.0 mi Calm Calm - N/A Rain Light Rain
6:55 PM 53.6 °F - 50.0 °F 88% 29.87 in 7.0 mi NNW 5.8 mph - N/A Rain Light Rain
7:15 PM 53.6 °F - 51.8 °F 94% 29.87 in 10.0 mi NNW 3.5 mph - N/A   Overcast
7:35 PM 53.6 °F - 50.0 °F 88% 29.87 in 10.0 mi NW 3.5 mph - N/A   Overcast
7:55 PM 53.6 °F - 50.0 °F 88% 29.87 in 10.0 mi Calm Calm - N/A   Overcast
8:15 PM 53.6 °F - 50.0 °F 88% 29.87 in 10.0 mi North 3.5 mph - N/A   Overcast
8:35 PM 53.6 °F - 48.2 °F 82% 29.88 in 10.0 mi North 4.6 mph - N/A   Overcast
8:55 PM 51.8 °F - 48.2 °F 88% 29.88 in 10.0 mi North 8.1 mph - N/A   Overcast
9:15 PM 51.8 °F - 50.0 °F 94% 29.89 in 10.0 mi NNE 6.9 mph - N/A   Overcast
9:35 PM 51.8 °F - 48.2 °F 88% 29.89 in 10.0 mi North 4.6 mph - N/A   Overcast
9:55 PM 51.8 °F - 48.2 °F 88% 29.89 in 10.0 mi NNE 6.9 mph - N/A   Mostly Cloudy
10:15 PM 50.0 °F - 48.2 °F 94% 29.89 in 10.0 mi North 3.5 mph - N/A   Mostly Cloudy
10:35 PM 50.0 °F - 46.4 °F 87% 29.89 in 10.0 mi North 4.6 mph - N/A   Overcast
10:55 PM 50.0 °F - 46.4 °F 87% 29.89 in 10.0 mi Calm Calm - N/A   Overcast
11:15 PM 50.0 °F - 46.4 °F 87% 29.89 in 10.0 mi NW 4.6 mph - N/A   Overcast
11:35 PM 48.2 °F - 46.4 °F 93% 29.90 in 10.0 mi NW 4.6 mph - N/A   Overcast
11:55 PM 48.2 °F - 46.4 °F 93% 29.90 in 10.0 mi NNW 4.6 mph - N/A   Overcast